Location: Oakhurst
(33.6448°N, 111.9543°W)
Time: 21:54:28
(UTC+00:00)

FO-99 - Pass Details

Date: 30 July 2021
Orbit: 471 x 503 km, 97.2° (Epoch: 25 September)

Event Time Altitude Azimuth Distance (km) Brightness Sun altitude
Exits shadow 03:29:38 - 173° (S) 2,018 ? -11.8°
Reaches altitude 10° 03:30:22 10° 174° (S) 1,707 ? -12.0°
Maximum altitude 03:34:02 72° 258° (WSW) 535 ? -12.6°
Drops below altitude 10° 03:37:45 10° 344° (NNW) 1,723 ? -13.3°
Sets 03:39:51 0° 347° (NNW) 2,611 ? -13.6°
